Location: Unspecified
(50.7693°N, 0.0000°E)
Time: 09:00:30
(UTC+00:00)

Tiros 1 despin weight - Visible Passes

Search period start: 19 June 2019 00:00
Search period end: 29 June 2019 00:00
Orbit: 595 x 642 km, 48.2° (Epoch: 18 June)

Date Brightness Start Highest point End Pass type
(mag) Time Alt. Az. Time Alt. Az. Time Alt. Az.
19 Jun ? 00:41:06 25° SSE 00:41:52 27° SSE 00:45:34 10° E visible
19 Jun ? 02:18:35 10° WSW 02:22:55 57° S 02:27:16 10° E visible
19 Jun ? 23:19:18 11° ESE 23:19:18 11° ESE 23:19:37 10° ESE visible
20 Jun ? 00:56:19 25° SSW 00:58:14 38° SSE 01:02:21 10° E visible
20 Jun ? 02:35:06 10° WSW 02:39:29 63° S 02:43:51 10° E visible
20 Jun ? 23:34:24 21° SE 23:34:24 21° SE 23:37:08 10° E visible
21 Jun ? 01:11:24 16° WSW 01:14:43 51° SSE 01:19:01 10° E visible
21 Jun ? 02:51:40 10° W 02:56:02 62° S 03:00:24 10° ESE visible
21 Jun ? 23:49:18 29° S 23:50:07 32° SSE 23:54:03 10° E visible
22 Jun ? 01:26:53 10° WSW 01:31:16 60° S 01:35:37 10° E visible
22 Jun ? 22:26:49 15° SE 22:26:49 15° SE 22:28:31 10° ESE visible
23 Jun ? 00:03:46 19° SW 00:06:33 44° SSE 00:10:45 10° E visible
23 Jun ? 01:43:26 10° W 01:47:49 63° S 01:52:12 10° E visible
23 Jun ? 22:40:02 19° S 22:42:01 26° SSE 22:45:40 10° E visible
24 Jun ? 00:18:42 10° WSW 00:23:03 55° SSE 00:27:22 10° E visible
24 Jun ? 02:00:02 10° W 02:04:23 59° S 02:08:44 10° ESE visible
24 Jun ? 21:15:53 10° SSE 21:17:43 12° SE 21:19:32 10° ESE visible
24 Jun ? 22:54:17 10° SW 22:58:24 37° SSE 23:02:28 10° E visible
25 Jun ? 00:35:12 10° WSW 00:39:37 63° S 00:43:59 10° E visible
25 Jun ? 02:16:38 10° W 02:20:54 48° SSW 02:25:10 10° ESE visible
25 Jun ? 21:30:39 10° SSW 21:33:56 20° SE 21:37:12 10° E visible
25 Jun ? 23:10:33 10° WSW 23:14:52 49° SSE 23:19:09 10° E visible
26 Jun ? 00:51:46 10° W 00:56:10 62° S 01:00:32 10° ESE visible
26 Jun ? 02:33:18 10° W 02:37:22 36° SSW 02:41:25 10° SE visible
26 Jun ? 21:46:20 10° SSW 21:50:15 30° SSE 21:54:10 10° E visible
26 Jun ? 23:26:59 10° WSW 23:31:23 59° S 23:35:45 10° E visible
27 Jun ? 01:08:22 10° W 01:12:43 55° SSW 01:17:02 10° ESE visible
27 Jun ? 02:50:08 10° W 02:53:44 25° SSW 02:57:21 10° SSE visible
27 Jun ? 22:02:27 10° SW 22:06:41 42° SSE 22:10:53 10° E visible
27 Jun ? 23:43:32 10° W 23:47:57 63° S 23:52:20 10° E visible
28 Jun ? 01:25:01 10° W 01:29:13 43° SSW 01:33:24 10° SE visible
28 Jun ? 22:18:48 10° WSW 22:23:11 54° SSE 22:27:31 10° E visible
